Location: Dyersburg
(36.0438°N, 89.3789°W)
Time: 19:07:05
(UTC+00:00)

Vanguard 3 - Visible Passes

Search period start: 16 February 2020 00:00
Search period end: 26 February 2020 00:00
Orbit: 508 x 3263 km, 33.3° (Epoch: 16 February)

Date Brightness Start Highest point End Pass type
(mag) Time Alt. Az. Time Alt. Az. Time Alt. Az.
16 Feb 11.4 00:45:47 10° W 01:00:01 29° SW 01:14:57 10° S visible
17 Feb 11.7 01:50:13 10° WSW 01:58:29 14° SW 02:06:46 10° SSW visible
18 Feb 11.6 00:29:48 10° W 00:42:38 25° SW 00:56:40 10° S visible
19 Feb 11.9 01:37:03 10° WSW 01:41:16 11° SW 01:45:34 10° SSW visible
20 Feb 11.7 00:14:14 10° W 00:25:23 21° SW 00:37:54 10° S visible
21 Feb 11.8 23:59:13 10° WSW 00:08:17 17° SW 00:18:31 10° S visible
